Weather History for KCRQ - March, 2013

Change the Weather History Date:

Wednesday, March 27, 2013

  Actual Average Record
Temperature  
Mean Temperature 59 °F -  
Max Temperature 63 °F 60 °F 82 °F (2015)
Min Temperature 55 °F 49 °F 48 °F (2002)
Degree Days  
Heating Degree Days 6    
Growing Degree Days 9 (Base 50)    
Moisture  
Dew Point 50 °F    
Average Humidity 72    
Maximum Humidity 82    
Minimum Humidity 62    
Precipitation  
Precipitation 0.00 in - - ()
Sea Level Pressure  
Sea Level Pressure 29.99 in    
Wind  
Wind Speed 2 mph (WSW)    
Max Wind Speed 9 mph    
Max Gust Speed -    
Visibility 10 miles    
Events      
Averages and records for this station are not official NWS values.
T = Trace of Precipitation, MM = Missing Value Source: NWS Daily Summary

Daily Weather History Graph

Daily Weather History Graph

Search for Another Location

Airport or City:

Trip Planner

Search our weather history database for the weather conditions in past years. The results will help you decide how hot, cold, wet, or windy it might be!

Date:

Astronomy

Mar. 27, 2013 Rise Set
Actual Time 6:43 AM PDT 7:06 PM PDT
Civil Twilight 6:18 AM PDT 7:30 PM PDT
Nautical Twilight 5:49 AM PDT 7:59 PM PDT
Astronomical Twilight 5:19 AM PDT 8:29 PM PDT
Moon 7:50 PM PDT (3/27) 6:39 AM PDT (3/27)
Length of Visible Light 13h 12m
Length of Day
12h 22m
Full, 100% of the Moon is Illuminated
Mar 27
Full
Apr 2
Last Quarter
Apr 10
New
Apr 18
First Quarter
Apr 25
Full

Hourly Weather History & Observations

Time (PDT) Temp. Dew Point Humidity Pressure Visibility Wind Dir Wind Speed Gust Speed Precip Events Conditions
12:53 AM 57.0 °F 50.0 °F 77% 29.96 in 9.0 mi Calm Calm - N/A   Overcast
1:53 AM 57.0 °F 50.0 °F 77% 29.95 in 10.0 mi Calm Calm - N/A   Overcast
2:53 AM 57.0 °F 50.0 °F 77% 29.94 in 10.0 mi Calm Calm - N/A   Overcast
3:53 AM 55.9 °F 50.0 °F 80% 29.93 in 9.0 mi Calm Calm - N/A   Overcast
4:53 AM 55.9 °F 50.0 °F 80% 29.93 in 9.0 mi Variable 3.5 mph - N/A   Overcast
5:53 AM 55.9 °F 48.9 °F 77% 29.94 in 9.0 mi Calm Calm - N/A   Overcast
6:53 AM 57.0 °F 48.9 °F 74% 29.96 in 9.0 mi SE 4.6 mph - N/A   Overcast
7:11 AM 57.2 °F 48.2 °F 72% 29.97 in 8.0 mi Calm Calm - N/A   Overcast
7:53 AM 57.0 °F 48.9 °F 74% 29.98 in 8.0 mi SE 3.5 mph - N/A   Overcast
8:53 AM 57.9 °F 48.0 °F 70% 29.99 in 10.0 mi SSE 3.5 mph - N/A   Overcast
9:53 AM 60.1 °F 48.9 °F 67% 30.00 in 10.0 mi Calm Calm - N/A   Overcast
10:38 AM 60.8 °F 48.2 °F 63% 30.01 in 10.0 mi Variable 3.5 mph - N/A   Scattered Clouds
10:53 AM 62.1 °F 48.9 °F 62% 30.00 in 10.0 mi Calm Calm - N/A   Mostly Cloudy
11:22 AM 60.8 °F 48.2 °F 63% 30.01 in 10.0 mi WSW 9.2 mph - N/A   Scattered Clouds
11:53 AM 61.0 °F 48.9 °F 64% 30.01 in 10.0 mi West 8.1 mph - N/A   Clear
12:53 PM 62.1 °F 48.9 °F 62% 30.00 in 10.0 mi WNW 4.6 mph - N/A   Mostly Cloudy
1:53 PM 63.0 °F 50.0 °F 63% 29.99 in 10.0 mi WSW 9.2 mph - N/A   Clear
2:53 PM 61.0 °F 50.0 °F 67% 29.99 in 10.0 mi WSW 8.1 mph - N/A   Clear
3:53 PM 62.1 °F 50.0 °F 65% 29.98 in 10.0 mi West 8.1 mph - N/A   Clear
4:53 PM 60.1 °F 50.0 °F 69% 29.98 in 10.0 mi WSW 5.8 mph - N/A   Clear
5:53 PM 60.1 °F 50.0 °F 69% 29.99 in 10.0 mi WSW 6.9 mph - N/A   Clear
6:53 PM 57.9 °F 50.0 °F 75% 29.99 in 10.0 mi NW 3.5 mph - N/A   Clear
7:53 PM 57.9 °F 50.0 °F 75% 30.00 in 10.0 mi Calm Calm - N/A   Clear
8:53 PM 57.0 °F 50.0 °F 77% 30.02 in 10.0 mi Calm Calm - N/A   Clear
9:53 PM 57.0 °F 50.0 °F 77% 30.05 in 10.0 mi Calm Calm - N/A   Scattered Clouds
10:01 PM 57.2 °F 51.8 °F 82% 30.05 in 10.0 mi Calm Calm - N/A   Mostly Cloudy
10:53 PM 57.9 °F 50.0 °F 75% 30.04 in 10.0 mi Calm Calm - N/A   Overcast
11:53 PM 57.0 °F 50.0 °F 77% 30.05 in 10.0 mi Calm Calm - N/A   Overcast